Lapse_Rate
6.5 6.4 6.5 6.3 6.1 6.0 5.4 5.5 5.2 4.9 5.2 5.4 5.6 6.1 6.1 6.2 6.6 6.9 7.1 6.7 6.5 6.0 6.1 5.8 5.6 5.7 5.5 5.6 5.6 5.6 5.7 5.8 5.8 5.9 5.9 5.8 5.7 5.6 5.7 5.7 5.7 5.6 5.7 5.5 5.7 5.7 5.8 5.8 5.9
6.6 6.6 6.2 6.1 5.7 5.7 5.7 5.5 5.6 5.5 5.3 5.4 5.4 5.8 5.8 6.1 6.4 6.7 6.8 6.8 6.4 6.3 5.8 5.6 5.3 5.5 5.5 5.3 5.3 5.4 5.5 5.7 5.8 5.8 5.7 5.7 5.7 5.6 5.7 5.7 5.8 5.7 5.6 5.4 5.7 5.8 5.7 5.7 5.8
6.6 6.4 6.3 6.1 5.6 5.7 5.5 5.7 6.0 5.6 5.3 5.0 5.2 5.5 5.8 6.1 6.4 6.4 6.4 6.6 6.3 6.1 5.9 5.6 5.7 5.6 5.2 5.3 5.4 5.3 5.5 5.8 5.7 5.8 5.8 5.7 5.7 5.7 5.7 5.7 5.7 5.6 5.5 5.7 5.7 5.7 5.7 5.8 5.8
6.5 6.5 6.1 5.7 5.7 5.6 6.0 6.3 6.4 5.9 5.7 5.4 5.5 5.6 5.8 6.2 6.2 6.2 6.2 6.3 6.3 6.1 5.8 5.8 5.7 5.6 5.6 5.3 5.3 5.2 5.4 5.5 5.5 5.8 5.8 5.6 5.6 5.8 5.6 5.7 5.6 5.6 5.5 5.7 5.7 5.7 5.7 5.8 5.7
6.3 6.4 6.2 6.0 5.7 5.6 6.2 6.5 6.5 6.0 5.9 5.9 5.8 5.7 5.7 6.1 6.2 6.3 5.9 6.0 6.1 6.1 5.9 5.6 5.5 5.5 5.4 5.2 5.3 5.2 5.1 5.3 5.4 5.4 5.6 5.6 5.7 5.7 5.7 5.7 5.6 5.6 5.5 5.7 5.7 5.5 5.9 6.0 5.7
6.0 6.0 6.1 6.0 5.8 5.7 5.9 6.2 6.1 6.1 6.0 5.9 5.7 5.5 5.7 5.9 6.1 6.0 5.8 5.8 5.9 5.9 5.8 5.5 5.5 5.4 5.4 5.3 5.2 5.1 5.0 5.0 5.2 5.1 5.3 5.6 5.8 5.7 5.7 5.5 5.6 5.6 5.7 5.8 5.5 5.5 5.6 5.6 5.7
6.1 5.8 5.9 6.1 6.1 6.2 6.2 6.0 6.2 6.2 6.0 6.3 5.8 5.6 5.5 5.8 6.0 5.6 5.6 5.6 5.9 5.7 5.7 5.5 5.5 5.4 5.3 5.3 5.3 5.2 5.1 5.0 5.0 4.9 5.1 5.6 5.6 5.6 5.7 5.5 5.5 5.7 5.6 5.7 5.5 5.6 5.6 5.6 5.5
6.5 6.3 6.2 5.8 5.7 5.5 5.8 5.9 6.2 5.9 6.2 6.3 5.9 5.6 5.4 5.6 6.0 5.8 5.7 5.7 5.8 5.7 5.6 5.5 5.2 5.3 5.2 5.4 5.3 5.1 5.2 5.3 5.2 5.3 4.9 5.4 5.4 5.6 5.6 5.5 5.7 5.4 5.6 5.7 6.2 5.9 5.8 5.6 5.5
6.7 6.6 6.1 5.9 5.6 5.7 5.8 6.1 6.0 5.9 6.1 6.1 6.0 5.8 5.9 5.8 6.0 6.0 5.9 5.8 5.7 5.5 5.6 5.6 5.3 5.1 5.5 5.4 5.5 5.3 5.1 5.3 5.2 5.2 5.3 5.6 5.4 5.6 5.6 5.7 5.7 5.4 5.5 5.8 5.6 5.8 6.1 6.0 5.9
6.7 6.5 6.3 6.3 6.1 6.0 5.9 5.7 5.7 6.0 6.1 6.2 5.9 5.9 6.0 6.1 6.0 6.0 5.9 5.9 5.8 5.6 5.7 5.6 5.3 5.3 5.4 5.5 5.5 5.3 5.2 5.1 5.2 5.2 5.6 5.7 5.5 5.5 5.8 6.2 5.8 5.7 5.6 5.2 5.5 6.2 6.1 6.2 6.0
6.9 6.9 6.6 6.5 6.6 6.4 6.2 5.7 5.8 6.0 6.0 5.8 6.0 6.1 6.3 6.1 6.0 5.9 5.7 5.6 5.5 5.3 5.4 5.5 5.5 5.4 5.6 5.6 5.3 5.2 5.4 5.3 5.4 5.3 5.4 5.5 5.6 5.5 6.1 6.0 5.8 5.9 6.1 5.9 6.2 6.1 6.3 6.1 6.2
7.5 7.0 6.7 6.6 6.9 6.7 6.6 6.6 6.2 6.2 5.9 5.9 5.9 6.0 6.3 6.2 5.9 5.7 5.6 5.5 5.2 5.3 5.3 5.5 5.5 5.5 5.5 5.5 5.4 5.3 5.4 5.4 5.2 5.2 5.2 5.5 5.5 5.6 6.1 6.1 5.9 6.1 6.2 6.2 6.5 6.3 6.2 6.2 6.0
7.3 7.1 6.8 7.1 6.9 6.7 6.7 6.8 6.8 6.4 6.2 6.1 6.0 6.0 6.1 6.0 5.8 5.5 5.1 5.3 5.1 5.1 5.2 5.4 5.4 5.3 5.5 5.6 5.5 5.3 5.2 5.2 5.1 5.0 5.2 5.2 5.5 5.6 6.0 6.1 6.1 6.1 6.2 6.1 6.3 6.2 6.0 6.2 6.2
6.9 7.0 7.1 7.5 7.2 7.0 6.7 6.7 7.0 7.0 6.7 6.5 6.1 5.9 6.0 5.9 5.6 5.5 5.3 5.5 5.3 5.2 5.2 5.3 5.3 5.6 5.6 5.6 5.4 5.3 5.4 5.4 5.0 4.9 5.1 5.4 5.4 5.7 6.0 6.0 6.0 6.1 6.3 6.2 5.9 5.6 5.8 5.8 6.2
6.7 7.1 7.3 7.4 7.1 6.9 6.7 7.1 7.3 7.4 7.3 6.9 6.6 6.1 6.0 6.0 5.7 5.6 5.3 5.3 5.2 5.1 5.2 5.3 5.3 5.4 5.4 5.4 5.3 5.1 5.2 5.1 4.9 4.7 5.0 5.3 5.4 5.7 5.9 5.9 6.0 6.3 6.5 6.4 5.9 5.6 5.7 6.0 5.9
7.2 7.6 7.9 7.5 7.2 7.0 6.6 7.4 7.0 7.4 7.3 6.9 6.8 6.2 6.1 6.4 6.2 5.9 5.7 5.5 5.5 5.4 5.2 5.3 5.3 5.2 5.2 5.3 5.2 5.0 5.1 5.2 5.3 5.1 5.2 5.3 5.3 5.5 5.7 6.0 6.1 6.3 6.4 6.5 6.2 6.0 6.1 6.1 6.0
7.3 7.5 7.8 7.7 7.4 7.1 6.9 7.5 7.4 7.5 7.5 7.2 7.0 6.8 6.4 6.3 6.6 6.5 6.0 5.6 5.5 5.5 5.5 5.6 5.5 5.3 5.2 5.2 5.2 5.1 5.1 5.2 5.2 5.2 5.3 5.5 5.5 5.5 5.6 5.9 6.1 6.6 6.6 6.4 6.5 6.4 6.1 6.3 6.5
7.3 7.3 7.7 8.0 7.5 7.1 7.2 8.0 7.3 7.2 7.7 7.6 7.1 7.3 7.2 7.1 6.7 6.2 6.2 6.0 5.6 5.5 5.5 5.7 5.5 5.4 5.2 5.2 5.2 5.2 5.1 5.4 5.3 5.3 5.5 5.7 5.8 5.7 5.7 5.9 6.0 6.5 6.5 6.5 6.5 6.5 6.5 6.3 6.2
7.1 7.1 7.6 8.1 7.5 7.5 8.0 8.0 8.0 7.6 7.7 8.0 7.7 7.4 7.5 7.5 6.8 6.3 6.0 5.9 5.9 5.6 5.5 5.7 5.7 5.5 5.4 5.5 5.5 5.5 5.2 5.1 5.4 5.4 5.4 5.6 5.8 6.0 6.2 6.0 6.0 6.3 6.5 6.6 6.6 6.3 6.2 6.5 6.4
7.1 7.1 8.0 8.1 7.8 7.4 7.8 8.1 8.2 8.2 8.1 7.9 7.9 7.6 7.3 7.2 6.8 6.6 6.2 6.0 5.9 5.9 5.6 5.7 5.5 5.5 5.4 5.3 5.4 5.4 5.4 5.4 5.2 5.3 5.3 5.5 5.7 6.1 6.4 6.2 6.2 6.0 6.4 6.5 6.5 6.6 6.6 6.5 6.3
7.1 7.5 7.6 7.4 7.9 7.7 7.6 7.9 8.3 8.6 8.4 8.2 8.3 8.0 7.5 7.5 7.4 6.7 6.6 6.5 6.3 6.1 5.9 5.6 5.6 5.6 5.4 5.4 5.4 5.6 5.6 5.5 5.5 5.4 5.8 6.0 5.8 6.0 6.2 6.2 6.2 5.8 6.2 6.3 6.2 6.3 6.4 6.6 6.5
7.8 7.5 7.6 7.7 7.6 7.5 7.7 7.6 8.3 8.4 8.5 8.6 8.5 8.3 7.9 7.8 7.4 7.0 6.7 6.6 6.5 6.3 5.9 5.7 5.6 5.8 5.6 5.5 5.6 5.7 5.7 5.6 5.2 5.0 5.3 5.6 5.7 5.7 5.9 6.2 6.3 6.1 6.0 6.2 6.1 6.2 6.3 6.1 6.1
8.2 8.0 7.9 7.9 7.9 7.7 7.7 7.6 8.3 8.5 8.9 8.8 8.7 8.3 8.3 8.0 7.5 7.3 7.2 7.0 6.5 6.0 5.9 5.9 5.7 5.8 6.0 5.9 5.8 5.7 5.8 5.7 5.4 4.9 5.0 5.2 5.8 5.6 5.9 6.0 6.0 6.1 6.0 6.1 6.0 5.9 5.9 5.7 5.6
8.2 8.0 7.8 7.9 7.8 7.4 7.8 7.7 8.9 8.8 8.8 8.7 8.8 8.6 8.6 8.3 8.0 7.8 7.4 7.1 6.8 6.4 6.3 6.0 5.9 5.8 5.9 6.2 6.1 5.9 5.8 5.7 5.7 5.3 5.3 5.6 5.6 5.8 5.9 6.0 5.8 5.8 5.9 5.9 5.9 6.1 6.0 5.9 5.7
8.3 8.1 7.6 7.2 6.5 6.3 7.7 7.8 8.7 8.9 8.6 9.1 9.0 8.9 9.0 8.8 8.3 8.1 7.8 7.4 7.0 6.7 6.6 6.2 5.9 6.0 5.9 6.0 6.3 6.2 6.0 5.9 5.8 5.6 5.5 5.7 5.6 5.8 5.7 5.8 5.7 5.6 5.6 5.8 6.0 6.2 6.3 6.1 6.0
8.3 8.2 8.3 6.7 6.0 7.1 7.9 8.0 9.0 9.1 8.9 9.2 9.1 9.1 8.9 8.9 8.6 8.4 8.0 7.6 7.3 7.0 7.0 6.6 6.4 6.1 6.0 5.9 6.1 6.3 6.4 6.3 6.0 5.8 5.6 5.5 5.6 5.4 5.2 5.2 5.3 5.5 5.5 5.7 5.9 6.1 6.0 6.1 6.1
8.4 8.5 8.8 8.3 7.5 7.1 8.3 8.6 8.9 9.3 9.3 9.3 9.2 9.1 8.9 9.0 9.0 8.7 8.4 8.1 7.5 7.3 7.2 7.2 6.8 6.4 6.1 6.0 6.1 6.6 6.6 6.4 6.3 6.0 5.8 5.6 5.6 5.4 5.2 5.3 5.3 5.4 5.5 5.7 5.8 5.9 6.0 6.0 6.0
8.6 8.5 8.5 8.5 7.1 6.8 7.6 8.1 8.6 9.2 9.4 9.3 9.1 9.0 9.1 9.0 9.0 8.8 8.7 8.6 8.1 7.8 7.3 7.1 7.0 6.7 6.3 6.2 6.3 6.4 6.6 6.5 6.4 6.3 6.1 5.7 5.7 5.7 5.5 5.3 5.4 5.5 5.6 5.7 5.8 5.9 6.0 6.0 5.9
8.8 8.8 8.6 8.4 8.3 6.6 6.1 7.9 8.9 9.1 9.2 9.3 9.3 9.2 9.2 9.2 9.1 8.9 8.8 9.0 8.5 8.1 7.8 7.4 7.4 7.0 6.6 6.4 6.3 6.4 6.5 6.5 6.4 6.4 6.4 6.1 5.8 5.9 5.9 5.8 5.5 5.4 5.5 5.6 5.8 5.9 5.8 6.0 5.8
8.9 8.9 9.0 8.4 8.0 7.8 7.6 8.1 8.9 8.8 8.9 9.0 9.2 9.4 9.5 9.2 9.0 9.0 8.8 8.7 8.7 8.5 8.4 7.8 7.5 7.0 6.9 6.9 6.5 6.5 6.6 6.7 6.5 6.4 6.5 6.4 6.2 6.0 5.9 5.9 5.8 5.5 5.4 5.6 5.8 5.8 5.7 5.9 5.7
Wind_Speed
2 2 1 2 4 5 2 3 4 9 4 4 5 1 5 3 2 3 1 4 12 12 13 17 15 13 15 16 15 16 17 18 17 18 16 15 13 12 11 9 7 7 8 8 8 8 9 8 7
2 3 1 2 4 3 1 3 5 3 5 4 5 4 3 2 3 7 7 7 13 12 13 15 13 13 14 15 16 16 16 16 15 15 15 13 11 11 9 9 8 9 8 7 8 8 9 8 8
2 3 2 4 3 3 3 2 3 7 8 1 3 4 2 3 3 9 4 11 12 10 11 16 18 9 16 17 16 15 15 15 14 14 13 12 10 10 9 9 9 9 8 7 8 8 8 8 7
1 2 4 4 3 1 3 3 3 6 4 4 4 4 3 3 6 5 12 12 10 8 12 22 21 16 14 15 15 16 15 15 14 14 13 12 11 10 10 9 9 8 8 7 6 7 6 6 6
3 2 4 3 2 1 3 2 2 1 3 3 2 2 3 4 8 13 13 11 11 7 12 18 20 18 15 14 12 15 15 14 13 14 14 13 12 11 10 9 9 7 6 7 6 5 5 5 5
4 2 4 2 2 1 4 4 4 0 1 2 4 4 2 5 10 10 11 10 10 8 7 14 17 17 14 14 13 13 14 13 12 13 12 13 11 10 10 9 7 4 3 6 6 6 6 7 5
3 3 2 1 2 5 2 1 2 3 4 2 8 5 1 3 6 8 9 7 7 8 8 9 12 14 14 12 12 11 11 11 5 6 10 10 10 10 10 7 5 4 2 5 5 6 6 8 8
4 3 2 1 3 4 1 1 2 4 2 2 4 5 5 5 8 8 8 7 7 6 7 7 8 9 13 10 11 11 11 16 12 3 4 9 9 9 8 6 4 4 4 4 5 5 7 7 6
2 4 0 2 3 3 3 1 2 2 3 2 2 5 5 15 12 8 9 5 5 4 5 6 5 7 11 13 12 12 11 15 17 12 11 9 4 3 2 4 3 4 4 9 11 2 8 6 4
3 2 5 3 4 4 5 4 1 2 2 2 1 6 17 17 14 12 10 11 8 6 5 5 6 6 7 6 6 7 9 12 15 13 9 7 6 2 4 4 3 6 6 3 5 5 9 6 5
3 3 3 3 4 7 5 4 3 4 4 6 6 14 16 16 13 12 11 10 12 8 4 6 6 8 7 5 6 8 10 11 11 9 9 8 5 4 5 3 6 7 3 7 9 12 8 5 7
1 5 4 2 6 6 7 4 5 8 5 4 11 17 16 16 13 12 12 10 10 8 8 6 6 6 7 7 5 7 7 8 7 8 8 8 5 4 4 4 8 8 6 8 4 6 7 5 7
3 4 4 7 6 5 5 6 5 8 3 8 13 15 15 14 13 12 11 10 9 9 7 8 8 6 7 6 6 6 6 8 9 8 8 6 4 3 5 5 8 6 9 5 6 5 6 4 3
4 4 5 3 3 4 6 2 1 4 8 11 12 13 13 13 14 9 9 10 10 8 8 7 9 8 9 4 5 5 7 9 9 8 8 6 4 3 4 7 8 7 8 8 5 4 4 2 2
5 4 5 2 2 5 6 4 9 5 12 13 13 12 11 12 11 14 12 12 12 8 8 10 9 10 9 7 7 6 8 9 7 7 7 6 6 7 7 8 6 6 10 8 4 3 3 2 5
4 4 5 3 3 1 7 9 7 9 13 14 13 12 13 14 15 11 10 11 10 9 11 9 10 9 9 6 8 7 8 7 7 9 8 7 6 8 8 5 4 7 7 3 1 1 3 3 2
6 1 2 7 6 3 4 9 4 9 12 14 14 13 14 12 12 13 13 12 11 12 10 10 9 10 9 7 8 7 8 7 7 8 10 7 4 6 7 5 5 7 6 2 2 1 1 2 2
3 5 5 6 3 5 6 17 2 6 10 15 15 13 13 14 17 14 13 13 11 11 10 10 9 8 8 6 3 3 3 4 8 7 8 9 6 7 6 6 4 4 2 2 3 3 0 1 3
2 2 6 17 8 5 8 15 18 9 10 11 11 12 13 16 16 13 12 11 12 10 10 11 11 9 9 6 5 4 4 3 2 6 8 9 8 8 7 5 5 4 2 2 2 1 1 2 3
3 4 9 12 9 7 4 11 9 9 12 18 18 15 16 14 11 12 12 12 12 12 12 10 12 12 9 8 5 3 3 2 4 8 8 11 8 9 9 6 4 5 3 3 3 2 1 0 2
4 5 5 8 8 3 3 7 6 4 6 5 12 13 12 16 15 13 14 15 13 13 14 13 12 12 10 8 6 3 3 2 2 2 3 7 10 9 10 9 6 5 3 4 3 3 3 2 1
5 8 8 7 1 3 3 6 6 5 7 7 9 11 10 14 13 12 15 14 16 14 12 13 12 12 10 10 8 6 5 4 3 4 4 5 11 9 9 9 8 5 3 4 4 3 2 2 2
10 3 4 3 2 3 4 3 8 4 7 8 11 14 13 14 14 14 16 18 17 14 14 12 12 12 11 12 10 8 5 3 2 3 6 5 4 8 9 9 7 4 3 3 4 3 4 2 2
2 1 4 4 3 2 4 4 7 2 7 6 3 11 14 13 16 14 13 12 13 11 10 12 13 12 12 12 11 12 10 7 4 3 4 3 3 4 7 8 6 7 4 4 3 3 4 4 3
4 5 3 4 4 5 1 2 9 12 7 10 12 9 11 12 13 13 14 14 13 14 13 12 13 12 12 12 12 12 10 9 9 7 5 5 4 3 5 5 5 3 6 6 5 3 3 3 2
6 8 6 5 3 5 0 5 6 1 9 10 6 5 5 8 11 15 17 16 17 17 15 14 14 13 13 13 13 10 10 7 6 7 5 5 5 5 5 6 7 8 8 8 7 3 4 4 4
2 3 4 7 3 2 3 7 9 8 10 12 9 3 5 8 13 14 15 16 16 17 18 18 15 14 14 14 11 11 10 9 8 7 7 5 5 5 6 7 7 8 8 8 6 5 5 4 4
5 6 2 3 3 4 5 5 5 6 8 10 12 7 6 8 9 10 14 16 16 17 17 16 15 18 16 13 12 11 11 10 8 7 8 8 6 6 5 6 7 7 6 6 6 4 5 5 5
1 1 5 4 4 5 3 6 7 6 3 8 8 7 8 8 9 10 12 14 14 13 15 16 15 15 14 14 11 11 10 10 8 9 8 9 7 6 6 6 6 8 8 6 6 7 6 6 5
2 3 5 5 4 1 3 7 5 7 7 7 10 8 6 4 8 8 10 10 13 14 15 16 14 11 12 13 12 12 11 11 11 11 9 8 9 6 7 6 7 7 7 6 8 9 8 8 8
Wind_Direction
137 241 247 37 65 64 45 36 47 12 23 349 121 186 154 71 148 208 138 153 127 144 162 153 152 149 139 136 135 130 130 129 128 128 133 140 144 146 147 143 135 127 121 117 109 106 102 100 103
134 190 46 70 77 77 347 22 26 359 336 62 80 119 56 103 90 116 126 155 135 142 150 151 144 146 145 139 137 137 137 137 136 135 138 143 149 147 150 145 141 129 130 126 121 112 105 100 100
268 178 80 86 102 137 138 62 350 327 328 302 108 68 86 152 86 147 155 144 131 134 146 140 158 176 160 143 143 141 140 141 142 146 148 148 157 150 148 149 142 138 128 131 111 105 109 114 123
7 38 33 73 103 217 196 197 343 353 22 53 75 70 74 271 146 149 140 136 127 126 147 150 155 180 157 145 155 147 149 150 153 155 152 154 155 155 150 155 140 145 142 137 129 123 125 133 141
22 62 48 91 136 213 232 229 238 145 354 316 91 75 76 347 113 133 138 135 132 137 156 157 164 168 164 159 159 151 147 150 156 158 152 160 162 156 151 152 146 162 126 123 110 105 149 164 170
31 71 48 354 294 243 253 215 209 306 92 176 83 93 158 125 130 146 133 138 140 138 142 160 162 157 162 161 164 160 157 150 163 156 155 159 159 156 158 158 156 118 114 101 90 79 119 136 119
90 67 172 187 272 320 237 147 283 36 27 276 133 112 8 178 144 139 127 120 118 124 129 145 157 156 158 163 164 170 155 136 130 146 150 166 162 160 162 155 146 128 96 88 115 99 114 103 74
99 91 48 284 194 263 255 145 295 70 339 79 136 168 169 194 150 123 114 113 113 131 147 148 169 151 158 175 174 177 156 136 128 116 171 176 169 170 168 153 136 134 117 106 80 90 124 115 68
104 58 15 239 174 250 137 152 168 199 178 201 223 148 172 143 133 122 119 113 119 152 148 152 145 132 141 207 180 182 167 141 155 186 191 175 140 172 147 127 116 121 101 67 41 358 108 108 97
87 109 224 217 160 188 180 175 248 170 163 228 76 74 132 141 148 150 155 162 165 179 179 157 154 159 165 163 174 171 144 155 167 186 173 155 145 123 81 103 149 134 116 88 160 105 128 95 108
159 208 238 247 184 151 166 207 242 182 222 217 180 143 143 151 159 164 169 176 179 184 183 168 163 166 169 153 157 154 137 158 161 153 148 155 144 90 68 152 168 169 122 123 124 94 90 138 133
276 241 227 276 159 154 169 175 217 192 220 202 154 156 154 160 169 176 177 174 186 178 187 163 160 161 168 158 162 159 143 156 153 147 149 168 156 97 111 175 194 179 156 147 151 113 110 122 153
232 275 206 240 161 184 153 217 212 219 233 124 142 159 168 170 180 186 192 182 188 184 179 174 158 168 162 155 166 173 154 157 162 156 165 181 159 129 152 206 225 191 163 171 157 153 119 125 174
294 260 286 208 220 196 165 199 183 222 142 143 157 174 182 184 185 184 188 187 189 189 185 165 172 163 159 162 161 183 160 168 166 173 170 188 173 172 207 206 221 218 147 208 179 162 115 107 128
321 317 338 217 200 209 129 278 236 160 162 161 179 185 189 196 192 196 196 193 187 196 174 175 176 163 167 168 169 173 181 176 164 180 178 198 222 234 187 198 212 218 167 208 191 160 112 130 75
32 40 10 310 185 216 133 270 283 166 164 177 187 198 201 199 201 205 197 198 183 178 187 172 181 168 171 165 176 175 183 175 174 174 178 204 223 194 166 191 222 197 166 199 83 1 351 344 60
8 359 301 320 210 124 197 271 260 171 174 184 191 202 207 209 206 197 196 194 185 182 182 176 175 167 174 165 176 170 166 178 184 185 175 184 205 195 158 192 193 182 134 149 19 343 42 357 330
322 337 307 259 292 209 224 257 199 182 183 193 194 205 212 212 213 204 197 189 182 180 180 182 180 156 161 149 135 117 148 174 189 205 183 180 173 186 161 156 175 184 112 183 136 217 158 310 322
275 248 280 291 265 268 233 245 261 189 207 212 200 203 216 217 217 204 193 191 179 175 168 175 169 166 155 151 160 180 189 185 206 213 197 199 175 159 157 172 183 188 167 203 162 188 261 322 14
212 296 286 281 271 176 309 265 255 181 212 207 208 208 217 226 202 198 184 182 187 177 178 176 177 167 174 167 161 167 169 191 195 200 208 203 199 172 165 184 196 196 158 202 201 180 122 293 33
246 206 262 236 338 261 0 294 275 254 235 213 220 204 199 202 202 189 187 186 183 181 183 182 178 167 174 166 134 98 105 76 123 161 194 210 214 200 183 186 196 203 167 197 204 200 176 188 169
297 186 248 270 202 247 101 287 290 294 271 228 216 206 184 191 205 193 187 185 189 192 179 181 172 167 170 167 165 156 171 166 191 173 179 180 201 201 199 194 193 206 193 195 200 219 195 143 192
233 33 340 303 185 33 314 49 270 360 304 267 224 217 198 188 194 194 192 191 194 182 185 172 168 169 171 178 180 180 170 175 160 156 158 167 189 192 196 212 181 185 207 220 205 185 213 205 158
261 271 40 56 74 346 250 135 287 293 231 294 251 218 212 186 192 198 195 183 189 182 174 167 169 173 171 177 180 185 179 173 168 173 179 175 181 187 190 206 199 198 207 213 219 222 206 195 206
101 68 324 344 9 226 282 63 244 276 298 250 273 226 213 193 178 182 176 181 182 182 176 172 172 180 175 180 184 186 188 179 187 187 193 172 175 193 198 188 205 192 203 216 226 233 250 226 231
184 160 161 201 212 259 66 239 256 305 300 311 281 251 196 175 185 187 184 184 186 183 184 181 179 177 179 184 187 187 185 189 189 193 186 197 193 200 184 193 203 211 207 207 208 221 228 233 235
205 199 186 108 18 44 249 294 318 328 0 17 24 95 195 204 199 190 184 185 184 184 186 185 182 184 183 188 181 184 186 191 188 185 188 199 202 209 198 199 200 209 206 209 200 213 222 214 230
183 157 67 9 156 243 287 282 241 326 332 355 2 343 268 218 204 197 187 188 190 191 188 185 186 189 184 185 185 185 188 195 186 178 190 194 205 206 203 204 202 210 210 199 198 224 227 217 229
125 220 54 123 139 175 224 263 215 222 295 320 322 323 302 231 199 193 198 189 188 183 186 190 190 183 179 183 185 181 183 190 183 193 198 201 197 197 212 211 210 211 219 204 195 221 227 225 239
217 148 149 134 240 254 160 270 237 196 267 291 294 302 312 273 210 192 178 176 183 187 184 191 187 182 201 186 176 186 177 178 189 200 202 196 205 192 209 204 207 210 214 194 208 219 213 216 225